Regional Weather Roundup
Issued by NWS Little Rock, AR

Home | Current Version | Previous Version | Graphics & Text | Print | Product List | Glossary On
Versions: 1 2 3 4 5 6 7 8 9 10 11 12 13 14 15 16 17 18 19 20 21 22 23 24 25 26 27 28 29 30 31 32 33 34 35 36 37 38 39 40 41 42 43 44 45 46 47 48 49 50
015
ASUS44 KLZK 010205
RWRLZK

WEATHER ROUNDUP FOR ARKANSAS
NATIONAL WEATHER SERVICE LITTLE ROCK AR
900 PM CDT FRI SEP 30 2016

NOTE: "FAIR" INDICATES FEW OR NO CLOUDS BELOW 12,000 FEET WITH NO
SIGNIFICANT WEATHER AND/OR OBSTRUCTIONS TO VISIBILITY.

ARZ001-003-010-029-010300-
NORTHWEST ARKANSAS

CITY           SKY/WX    TMP DP  RH WIND       PRES   REMARKS
FAYETTEVILLE   CLEAR     56  55  97 CALM      30.12R
FORT SMITH     CLEAR     67  51  56 CALM      30.08R
HARRISON       CLEAR     58  54  86 W5        30.12R
BENTONVILLE    CLEAR     61  50  67 CALM      30.12S
ROGERS         CLEAR     61  54  77 CALM      30.12F
SILOAM SPGS    CLOUDY    61  46  59 CALM      30.13R
HIGHFILL       PTCLDY    61  53  75 CALM      30.11S
SPRINGDALE     CLEAR     63  54  72 CALM      30.13S
$$

ARZ004-005-016-010300-
NORTH CENTRAL ARKANSAS

CITY           SKY/WX    TMP DP  RH WIND       PRES   REMARKS
BATESVILLE     CLOUDY    64  55  72 CALM      30.09S
FLIPPIN        CLOUDY    66  54  63 CALM      30.07S
MTN HOME       CLOUDY    64  57  78 CALM      30.09S
$$

ARZ040-041-010300-
WEST CENTRAL ARKANSAS

CITY           SKY/WX    TMP DP  RH WIND       PRES   REMARKS
MENA           CLEAR     59  55  88 CALM      30.10R
MOUNT IDA      CLEAR     60  57  89 CALM      30.06R
$$

ARZ009-017-025-026-028-010300-
NORTHEAST ARKANSAS

CITY           SKY/WX    TMP DP  RH WIND       PRES   REMARKS
CORNING          N/A     64  61  88 NW5       30.07S
JONESBORO      CLOUDY    67  56  67 N5        30.06S
NEWPORT        CLOUDY    66  57  72 NW3       30.08R
WALNUT RIDGE   CLOUDY    66  55  68 NW5       30.07S
BLYTHEVILLE    MOCLDY    63  58  83 NW5       30.06S
$$

ARZ022-023-033-042-044-010300-
CENTRAL ARKANSAS

CITY           SKY/WX    TMP DP  RH WIND       PRES   REMARKS
LITTLE ROCK    PTCLDY    64  59  83 CALM      30.07R
N LITTLE ROCK    N/A     67  56  67 N3        30.06R
JACKSONVILLE   CLEAR     62  57  84 MISG      30.07R
SEARCY         PTCLDY    67  57  70 CALM      30.09R
HOT SPRINGS    MOCLDY    66  54  65 CALM      30.07R
RUSSELLVILLE   CLEAR     63  56  78 CALM      30.07R
$$

ARZ036-010300-
EAST ARKANSAS

CITY           SKY/WX    TMP DP  RH WIND       PRES   REMARKS
WEST MEMPHIS   CLEAR     64  53  67 CALM      30.05S
$$

ARZ050-053-066-070-073-010300-
SOUTHWEST ARKANSAS

CITY           SKY/WX    TMP DP  RH WIND       PRES   REMARKS
ARKADELPHIA    FAIR      60  59  96 CALM      30.08R
TEXARKANA      CLEAR     68  53  58 CALM      30.08R
EL DORADO      CLEAR     61  58  90 CALM      30.07S
DE QUEEN       PTCLDY    60  56  86 CALM      30.06R
$$

ARZ056-057-069-010300-
SOUTHEAST ARKANSAS

CITY           SKY/WX    TMP DP  RH WIND       PRES   REMARKS
PINE BLUFF     CLEAR     63  57  81 NE6       30.06S
STUTTGART      CLOUDY    66  54  63 CALM      30.08R
MONTICELLO     CLEAR     63  58  83 CALM      30.06S

$$






USA.gov is the U.S. government's official web portal to all federal, state and local government web resources and services.